Погода Чимбай

Погода Чимбай : погода сейчас, прогноз погоды и архив. Всё, что Вы хотите узнать о погоде Чимбай!

Хотите узнать прогноз погоды Чимбай? Тогда Вам сюда: Погода Чимбай

Поиск расширенной информации на нашем сайте:

Другие новости

Новости СМИ2

Главная страница сайта

Новости сайта

02.10.2013

Напоминаем, что на нашем новом сайте вы можете получить высокодетализированные прогнозы погоды по пунктам России, СНГ и мира (включающие важные для авиации метеовеличины, такие как направление и скорость ветра, видимость, явления погоды, количество и форма облачности, нижняя и верхняя граница облачности), а также ознакомиться с разнообразными материалами по авиационной метеорологии и подборкой полезных ссылок на эту тему.

Сайт Метеоцентр.Азия посвящён разработке технологий оптимизации авиаметеорологического обслуживания, включая проектирование и перспективное создание нескольких автоматизированных авиаметеорологических систем:
- система выпуска высокодетальных прогностических карт явлений погоды для нижнего воздушного пространства по России и ближнему зарубежью;
- система верификации прогнозов TAF (выпускаемых синоптиками официальных АМСГ РФ и ближнего зарубежья) и AUTOTAF (выпускаемых сайтом Метеоцентр.Азия) - выявление ошибок, онлайн-сопоставление с фактической погодой METAR, автоматическое внесение коррективов в прогнозы при резком отклонении фактической погоды от прогноза, подсчёт оправдываемости прогнозов по элементам и в целом;
- система обработки, анализа и отображения авиаметеорологической информации для применения провайдерами метеорологической информации.

Рекомендуем: Заказать производство новогодней продукции купить искусственные новогодние.

Погода Чимбай - сегодня

Время (UTC), дата Ветер
(°,м/с) 
Видим.   Явления Облачность Т
(°С)
Тd
(°С)
f(%) Тe
(°С)
Pmin
(гПа)
dP
(гПа)
Po
(мм)
O2
(г/м3)
Тmin Tmax R s Состояние
почвы
15 18.01.17 090 (В) н/о    ясно 
-5.4 -14.7 48 -5  1031.1  767  317    -0.5       
18 18.01.17 270 (З) н/о    ясно 
-7 -15 53 -8  1031.1  767  318    -0.5       
21 18.01.17 320 (СЗ) н/о    ясно 
-8.6 -15.1 59 -10  1030.9  -0.2  767  320           
00 19.01.17 320 (СЗ) н/о    ясно 
-9 -15.1 61 -11  1030.8  -0.3  767  321           
03 19.01.17 320 (СЗ) 20000 м    10/10 1000 м 
[Sc]
-8.6 -14 65 -10  1030.8  767  320           
06 19.01.17 320 (СЗ) 20000 м    10/10 1000 м 
[Sc]
-7.3 -14.3 57 -9  1031.7  1.1  767  319  -9.5         
09 19.01.17 тихо ()   20000 м    10/0 средняя 
[Ac trans]
-5.2 -13.2 53 -5  1030.1  -1.6  766  316           
12 19.01.17 090 (В) 20000 м    10/0 средняя 
[Ac trans]
-4.3 -14.5 45 -6  1029.6  -0.5  766  315           
15 19.01.17 360 (С) н/о    ясно 
-6.2 -14.3 53 -9  1028.8  -0.8  765  317    -3.7       
18 19.01.17 360 (С) н/о    ясно 
-7 -13.3 61 -8  1029  0.2  765  318    -3.7       
21 19.01.17 360 (С) н/о    6/0 средняя 
[Ac trans]
-7.6 -13.6 62 -9  1029  765  318           
00 20.01.17 360 (С) н/о    8/0 средняя 
[Ac trans]
-7.8 -12.8 67 -9  1028.5  -0.5  765  318           
03 20.01.17 360 (С) 20000 м    10/10 1000 м 
[Sc]
-7.6 -13.1 65 -10  1028.5  765  318           
06 20.01.17 340 (С) 20000 м    10/10 1000 м 
[Sc]
-7.2 -13.6 60 -9  1029.6  1.1  766  318  -8.2         
09 20.01.17 340 (С) 4000 м  слаб. снег  10/10 1000 м 
[Sc]
-4.5 -7.9 77 -6  1027.4  -2.2  764  314           
12 20.01.17 320 (СЗ) 4000 м  слаб. снег  10/10 300 м 
[Ns]
-5 -7.8 81 -7  1027  -0.4  764  314           
18 20.01.17 320 (СЗ) н/о    10/10 1000 м 
[Sc]
-5.5 -9.3 75 -8  1027.3  0.2  764  315    -4.2     
21 20.01.17 320 (СЗ) н/о    10/10 1000 м 
[Sc]
-7.2 -11.1 74 -10  1027.4  0.1  764  317           
00 21.01.17 320 (СЗ) н/о    10/10 1000 м 
[Sc]
-9.7 -13.4 74 -11  1027.5  0.2             
03 21.01.17 180 (Ю) 20000 м    10/10 1000 м 
[Sc]
-8.4 -11.5 78 -10  1027.3  -0.5  763  318         
06 21.01.17 160 (Ю) 20000 м    10/10 1000 м 
[Sc]
-7.4 -12.3 68 -9  1027.3  0.2  764  318  -10.2         
09 21.01.17 160 (Ю) 20000 м    9/9 1000 м 
[Sc]
-4.7 -12.4 55 -6  1026.7  -0.6  764  314           
12 21.01.17 160 (Ю) 20000 м    10/10 1000 м 
[Sc]
-5 -11.3 61 -6  1025.6  -1.1  763  314           
15 21.01.17 180 (Ю) н/о    10/10 1000 м 
[Sc]
-4.2 -10.1 63 -5  1025.8  0.2  763  313    -4       
18 21.01.17 230 (ЮЗ) н/о    10/10 1000 м 
[Sc]
-4.2 -9.7 65 -6  1025.8  763  313    -4       
Время (UTC), дата Ветер
(°,м/с) 
Видим.   Явления Облачность Т
(°С)
Тd
(°С)
f(%) Тe
(°С)
Pmin
(гПа)
dP
(гПа)
Po
(мм)
O2
(г/м3)
Тmin Tmax R s Состояние
почвы

Для получения пояснительной информации подведите курсор к названию столбца.

ПОГОДА Чимбай - архив

Всё, что Вы хотите узнать о погоде Чимбай - удобно и подробно!

Выберите нужную дату (начиная с 1 января 2015* года) и нажмите кнопку "Найти".
Будут отображены архивные сводки погоды по пункту Чимбай, начиная с указанной даты.


Отображать данные в формате CSV (для использования в таблицах Excel)


Внимание! Наш архив погоды предназначен исключительно для личного некоммерческого использования в познавательных целях. Если Вам необходимы официальные справки о состоянии погоды (для производственных, юридических, коммерческих и т.п. целей), обращайтесь в органы Росгидромета.

*Примечание: данная дата относится к архиву по метеостанциям СССР (Россия, СНГ, Балтия).
Архив по метеостанциям Зарубежной Европы и Азии (кроме Китая) хранится 10 дней, по другим регионам земного шара (Китай, Африка, Америка, Австралия, Океания) - 1 день.

Чимбай - район местоположения метеостанции


Название, широта, долгота, высота метеостанции:
Чимбай 42.9°ш. 59.8°д. 66 м над ур. моря [Узбекистан]

Дополнительная информация

В oтличие oт бoльшинства пoгoдных сайтoв мы публикуем пoдрoбную метеoинфoрмацию в детальнoм прoфессиoнальнoм фoрмате.

Характеристики температуры и влажнoсти вoздуха измеряются на высoте 2 м в тени вдали oт зданий и деревьев.
Скoрoсть ветра измеряется на высoте 10 м (на урoвне рoста челoвека скoрoсть ветра ниже в 1.5-2 раза). Если метеoстанция нахoдится в гoрoде или в лесу, тo скoрoсть ветра занижена на 2-4 м/с пo сравнению с oткрытым местoм. Скoрoсть ветра над акватoриями крупных рек и oзёр, а также на вершинах хoлмoв на 2-5 м/с выше, чем в oбычных услoвиях.
Атмoсфернoе давление в разных тoчках местнoсти мoжет значительнo oтличаться oт давления на метеoстанции, в зависимoсти oт услoвий рельефа (при пoдъёме на 10 м давление пoнижается примернo на 1 мм рт.ст.).